COSMOS 2251 DEB, 35703

Orbit data source: Space-Track

COSMOS 2251 DEB, 35703 is space debris in LEO originally from a launch on Wed, 16 Jun 1993 UTC launched from the Plesetsk Missile And Space Complex (PKMTR). The debris from Iridium 33, an American commercial communications satellite, has been tracked extensively since its accidental collision with the defunct Russian satellite Cosmos 2251 in 2009. This event, occurring at high speed in low Earth orbit (LEO), generated thousands of pieces of space debris, significantly increasing the risk of further collisions. The Iridium 33 debris cloud has impacted space traffic management and orbital debris mitigation strategies, making it a subject of ongoing study in space situational awareness.

Loading next visibility...
Identifier
35703, 1993-036APY
Orbit
LEO
Country
Flag of CISCIS
Related business
Manufacturer
Unknown
Mission
Spacecraft
Bus & Motor
Unknown
Mass
Unknown
Launch date (UTC)
1993-06-16 (33 years ago)
Launch vehicle
Unknown
Launch site
Plesetsk Missile And Space Complex (PKMTR)
Object type
Payload
Rocket body
Debris
Shape & HBR
Unknown shape, 0.1 m
Radar Cross Section
Small (<0.1 m²)

Expand to show TLE details & history
Last TLE update: 1 day ago

TLE from 1 day ago
0 COSMOS 2251 DEB
1 35703U 93036APY 26144.51945406  .00005579  00000-0  52052-3 0  9993
2 35703  74.0403  76.1971 0062004 104.7386 256.0680 14.92970537690436
Epoch: 2026-05-24T12:28Z
TLE epoch observation values (Epoch: 2026-05-24T12:28:00.830Z)
Latitude
-0.00001°
Longitude
7.07321°
Altitude
602.014 km
Speed
7.553 km/s
True Right ascension
05h 04m 47s
True Declination
0° 00' 00"
Sunlit
Object was in daylight at epoch
Visualization orbit readout
Latitude
Unknown
Longitude
Unknown
Altitude
Unknown
Speed
Unknown
Apparent Right ascension
Unknown
Apparent Declination
Unknown
Sunlit
N/A
Visualization observer readout
Local Sidereal Time
21:44:02
Azimuth
Unknown
Elevation
Unknown
Doppler factor
Unknown
Orbital elements
Apogee altitude
629.422 km
Perigee altitude
543.058 km
Semi-major axis
6,964.377 km
Eccentricity
0.0062
Inclination
74.0403°
RAAN
76.1971°
Arg. of periapsis
104.7386°
True anomaly
255.37969°
Mean anomaly
256.068°
Eccentric anomaly
255.72371°
Mean motion
3.73439 °/min
Orbital period
96.4 mins
BSTAR
0.00052052
Loading maneuver chart data...
Computing Atmospheric mass density...

Documentation

Showing up to 5 results
|